TimeEST,TemperatureF,Dew PointF,Humidity,Sea Level PressureIn,VisibilityMPH,Wind Direction,Wind SpeedMPH,Gust SpeedMPH,PrecipitationIn,Events,Conditions,WindDirDegrees,DateUTC
12:15 AM,46.0,30.6,55,30.09,10.0,NNW,6.9,-,N/A,,Clear,330,2012-11-09 05:15:00
12:35 AM,46.0,30.6,55,30.09,10.0,NNW,5.8,-,N/A,,Clear,340,2012-11-09 05:35:00
12:55 AM,45.5,30.9,57,30.09,10.0,NNW,4.6,-,N/A,,Clear,340,2012-11-09 05:55:00
1:15 AM,44.6,31.1,59,30.09,10.0,NW,8.1,-,N/A,,Clear,320,2012-11-09 06:15:00
1:35 AM,44.6,31.1,59,30.09,10.0,NNW,4.6,-,N/A,,Clear,340,2012-11-09 06:35:00
1:55 AM,44.4,31.3,60,30.09,10.0,NNW,4.6,-,N/A,,Clear,340,2012-11-09 06:55:00
2:35 AM,42.4,31.1,64,30.10,10.0,NW,3.5,-,N/A,,Clear,310,2012-11-09 07:35:00
2:55 AM,41.4,31.5,68,30.11,10.0,NW,4.6,-,N/A,,Clear,320,2012-11-09 07:55:00
3:15 AM,37.0,30.6,77,30.11,10.0,Calm,Calm,-,N/A,,Clear,0,2012-11-09 08:15:00
3:35 AM,36.5,31.3,81,30.11,10.0,Calm,Calm,-,N/A,,Clear,0,2012-11-09 08:35:00
3:55 AM,36.9,30.9,79,30.11,10.0,Calm,Calm,-,N/A,,Clear,0,2012-11-09 08:55:00
4:15 AM,37.4,31.3,79,30.12,10.0,Calm,Calm,-,N/A,,Clear,0,2012-11-09 09:15:00
4:35 AM,35.8,31.6,85,30.13,10.0,Calm,Calm,-,N/A,,Clear,0,2012-11-09 09:35:00
4:55 AM,36.1,31.5,83,30.13,10.0,Calm,Calm,-,N/A,,Clear,0,2012-11-09 09:55:00
5:15 AM,34.9,31.5,87,30.14,10.0,Calm,Calm,-,N/A,,Clear,0,2012-11-09 10:15:00
5:35 AM,34.5,31.5,89,30.15,10.0,Calm,Calm,-,N/A,,Clear,0,2012-11-09 10:35:00
5:55 AM,34.9,31.5,87,30.15,10.0,Calm,Calm,-,N/A,,Clear,0,2012-11-09 10:55:00
6:15 AM,33.6,30.4,88,30.16,10.0,Calm,Calm,-,N/A,,Clear,0,2012-11-09 11:15:00
6:35 AM,33.8,31.1,90,30.17,10.0,Calm,Calm,-,N/A,,Clear,0,2012-11-09 11:35:00
6:55 AM,33.3,30.9,91,30.17,10.0,Calm,Calm,-,N/A,,Clear,0,2012-11-09 11:55:00
7:15 AM,32.9,31.1,93,30.18,10.0,Calm,Calm,-,N/A,,Clear,0,2012-11-09 12:15:00
7:35 AM,34.5,31.6,89,30.19,10.0,Calm,Calm,-,N/A,,Clear,0,2012-11-09 12:35:00
7:55 AM,35.8,32.2,87,30.20,10.0,Calm,Calm,-,N/A,,Clear,0,2012-11-09 12:55:00
8:15 AM,38.8,33.1,80,30.21,10.0,Calm,Calm,-,N/A,,Clear,0,2012-11-09 13:15:00
8:35 AM,41.7,33.8,73,30.21,10.0,Calm,Calm,-,N/A,,Clear,0,2012-11-09 13:35:00
8:55 AM,43.7,34.0,69,30.21,10.0,Calm,Calm,-,N/A,,Clear,0,2012-11-09 13:55:00
9:15 AM,46.8,34.5,62,30.21,10.0,Calm,Calm,-,N/A,,Clear,0,2012-11-09 14:15:00
9:55 AM,53.4,34.3,48,30.22,10.0,NNW,13.8,17.3,N/A,,Clear,330,2012-11-09 14:55:00
10:15 AM,54.0,34.3,47,30.22,10.0,NNW,10.4,23.0,N/A,,Clear,330,2012-11-09 15:15:00
10:35 AM,55.2,34.2,45,30.22,10.0,NNW,12.7,23.0,N/A,,Clear,330,2012-11-09 15:35:00
10:55 AM,56.7,34.5,43,30.22,10.0,NNW,12.7,19.6,N/A,,Clear,340,2012-11-09 15:55:00
11:15 AM,56.5,33.4,42,30.22,10.0,North,10.4,23.0,N/A,,Clear,350,2012-11-09 16:15:00
11:35 AM,56.7,33.8,42,30.21,10.0,NW,13.8,-,N/A,,Clear,320,2012-11-09 16:35:00
11:55 AM,58.1,34.0,40,30.20,10.0,NW,15.0,20.7,N/A,,Clear,320,2012-11-09 16:55:00
12:15 PM,58.8,34.0,39,30.20,10.0,NW,8.1,-,N/A,,Clear,320,2012-11-09 17:15:00
12:35 PM,59.5,33.6,38,30.19,10.0,NW,17.3,21.9,N/A,,Clear,320,2012-11-09 17:35:00
12:55 PM,59.7,33.8,38,30.19,10.0,NW,11.5,16.1,N/A,,Clear,320,2012-11-09 17:55:00
1:15 PM,59.9,33.1,36,30.18,10.0,North,10.4,-,N/A,,Clear,360,2012-11-09 18:15:00
1:35 PM,61.0,34.9,38,30.18,10.0,NW,11.5,-,N/A,,Clear,320,2012-11-09 18:35:00
1:55 PM,61.0,35.1,38,30.17,10.0,North,4.6,-,N/A,,Clear,360,2012-11-09 18:55:00
2:15 PM,61.7,35.4,38,30.17,10.0,North,4.6,-,N/A,,Clear,350,2012-11-09 19:15:00
2:35 PM,61.5,35.2,37,30.17,10.0,WNW,8.1,-,N/A,,Clear,290,2012-11-09 19:35:00
2:55 PM,61.7,35.6,38,30.17,10.0,WNW,4.6,-,N/A,,Clear,300,2012-11-09 19:55:00
3:15 PM,61.7,35.6,38,30.16,10.0,West,5.8,-,N/A,,Clear,280,2012-11-09 20:15:00
3:35 PM,61.7,35.6,38,30.16,10.0,WSW,5.8,-,N/A,,Clear,250,2012-11-09 20:35:00
3:55 PM,61.3,35.4,38,30.16,10.0,SW,4.6,-,N/A,,Clear,220,2012-11-09 20:55:00
4:15 PM,60.4,36.1,40,30.17,10.0,West,3.5,-,N/A,,Clear,260,2012-11-09 21:15:00
4:35 PM,59.4,36.0,42,30.17,10.0,Calm,Calm,-,N/A,,Clear,0,2012-11-09 21:35:00
4:55 PM,57.7,36.1,44,30.17,10.0,Calm,Calm,-,N/A,,Clear,0,2012-11-09 21:55:00
5:15 PM,53.2,37.8,56,30.17,10.0,Calm,Calm,-,N/A,,Clear,0,2012-11-09 22:15:00
5:35 PM,52.7,37.4,56,30.17,10.0,Calm,Calm,-,N/A,,Clear,0,2012-11-09 22:35:00
5:55 PM,51.4,37.0,58,30.18,10.0,Calm,Calm,-,N/A,,Clear,0,2012-11-09 22:55:00
6:15 PM,50.5,36.9,59,30.19,10.0,Calm,Calm,-,N/A,,Clear,0,2012-11-09 23:15:00
6:35 PM,48.7,37.8,66,30.20,10.0,Calm,Calm,-,N/A,,Clear,0,2012-11-09 23:35:00
6:55 PM,47.7,36.9,66,30.20,10.0,Calm,Calm,-,N/A,,Clear,0,2012-11-09 23:55:00
7:15 PM,46.0,36.7,70,30.20,10.0,Calm,Calm,-,N/A,,Clear,0,2012-11-10 00:15:00
7:35 PM,45.7,37.4,73,30.21,10.0,Calm,Calm,-,N/A,,Clear,0,2012-11-10 00:35:00
7:55 PM,45.1,37.4,74,30.21,10.0,Calm,Calm,-,N/A,,Clear,0,2012-11-10 00:55:00
8:15 PM,44.6,36.7,74,30.21,10.0,Calm,Calm,-,N/A,,Clear,0,2012-11-10 01:15:00
8:35 PM,43.9,36.7,76,30.21,10.0,Calm,Calm,-,N/A,,Clear,0,2012-11-10 01:35:00
8:55 PM,43.0,37.4,81,30.22,10.0,Calm,Calm,-,N/A,,Clear,0,2012-11-10 01:55:00
9:15 PM,42.1,36.3,80,30.22,10.0,Calm,Calm,-,N/A,,Clear,0,2012-11-10 02:15:00
9:35 PM,41.0,36.0,82,30.23,10.0,Calm,Calm,-,N/A,,Clear,0,2012-11-10 02:35:00
9:55 PM,41.4,36.5,83,30.22,10.0,Calm,Calm,-,N/A,,Clear,0,2012-11-10 02:55:00
10:15 PM,41.0,36.5,84,30.23,10.0,Calm,Calm,-,N/A,,Clear,0,2012-11-10 03:15:00
10:35 PM,40.1,36.0,85,30.22,10.0,Calm,Calm,-,N/A,,Clear,0,2012-11-10 03:35:00
10:55 PM,39.7,35.8,86,30.22,10.0,Calm,Calm,-,N/A,,Clear,0,2012-11-10 03:55:00
11:15 PM,39.6,36.5,89,30.23,10.0,Calm,Calm,-,N/A,,Clear,0,2012-11-10 04:15:00
11:35 PM,39.4,36.1,88,30.23,10.0,Calm,Calm,-,N/A,,Clear,0,2012-11-10 04:35:00